Date_Time,Julian_Date,Latitude,Longitude,Instrument_Depth,U,V,Speed,Direction
(yyyy-mm-dd hh:mn:ss UTC),(JD),(+ deg. North),(+ deg. East),(m),(cm/s),(cm/s),(cm/s),(deg True)
1981-04-28 15:00:00 UTC,2444723.125000,29.4519,-93.4333,0107,-7.25,3.38,8.0000,295.0000
1981-04-28 15:30:00 UTC,2444723.145833,29.4519,-93.4333,0107,-7.79,1.80,8.0000,283.0000
1981-04-28 16:00:00 UTC,2444723.166667,29.4519,-93.4333,0107,-7.94,-0.97,8.0000,263.0000
1981-04-28 16:30:00 UTC,2444723.187500,29.4519,-93.4333,0107,-7.06,-3.76,8.0000,242.0000
1981-04-28 17:00:00 UTC,2444723.208333,29.4519,-93.4333,0107,-6.47,-6.25,9.0000,226.0000
1981-04-28 17:30:00 UTC,2444723.229167,29.4519,-93.4333,0107,-6.16,-7.88,10.0000,218.0000
1981-04-28 18:00:00 UTC,2444723.250000,29.4519,-93.4333,0107,-6.36,-10.18,12.0000,212.0000
1981-04-28 18:30:00 UTC,2444723.270833,29.4519,-93.4333,0107,-5.45,-10.69,12.0000,207.0000
1981-04-28 19:00:00 UTC,2444723.291667,29.4519,-93.4333,0107,-4.88,-10.96,12.0000,204.0000
1981-04-28 19:30:00 UTC,2444723.312500,29.4519,-93.4333,0107,-4.82,-9.89,11.0000,206.0000
1981-04-28 20:00:00 UTC,2444723.333333,29.4519,-93.4333,0107,-4.69,-8.83,10.0000,208.0000
1981-04-28 20:30:00 UTC,2444723.354167,29.4519,-93.4333,0107,-4.23,-7.95,9.0000,208.0000
1981-04-28 21:00:00 UTC,2444723.375000,29.4519,-93.4333,0107,-4.09,-8.02,9.0000,207.0000
1981-04-28 21:30:00 UTC,2444723.395833,29.4519,-93.4333,0107,-3.63,-7.13,8.0000,207.0000
1981-04-28 22:00:00 UTC,2444723.416667,29.4519,-93.4333,0107,-4.23,-7.95,9.0000,208.0000
1981-04-28 22:30:00 UTC,2444723.437500,29.4519,-93.4333,0107,-4.47,-6.63,8.0000,214.0000
1981-04-28 23:00:00 UTC,2444723.458333,29.4519,-93.4333,0107,-5.14,-6.13,8.0000,220.0000
1981-04-28 23:30:00 UTC,2444723.479167,29.4519,-93.4333,0107,-5.36,-4.50,7.0000,230.0000
1981-04-29 00:00:00 UTC,2444723.500000,29.4519,-93.4333,0107,-6.49,-2.62,7.0000,248.0000
1981-04-29 00:30:00 UTC,2444723.520833,29.4519,-93.4333,0107,-6.93,-0.97,7.0000,262.0000
1981-04-29 01:00:00 UTC,2444723.541667,29.4519,-93.4333,0107,-7.96,-0.84,8.0000,264.0000
1981-04-29 01:30:00 UTC,2444723.562500,29.4519,-93.4333,0107,-8.00,-0.28,8.0000,268.0000
1981-04-29 02:00:00 UTC,2444723.583333,29.4519,-93.4333,0107,-8.00,0.14,8.0000,271.0000
1981-04-29 02:30:00 UTC,2444723.604167,29.4519,-93.4333,0107,-7.97,-0.70,8.0000,265.0000
1981-04-29 03:00:00 UTC,2444723.625000,29.4519,-93.4333,0107,-8.65,-2.48,9.0000,254.0000
1981-04-29 03:30:00 UTC,2444723.645833,29.4519,-93.4333,0107,-9.14,-4.07,10.0000,246.0000
1981-04-29 04:00:00 UTC,2444723.666667,29.4519,-93.4333,0107,-9.89,-4.82,11.0000,244.0000
1981-04-29 04:30:00 UTC,2444723.687500,29.4519,-93.4333,0107,-9.62,-5.33,11.0000,241.0000
1981-04-29 05:00:00 UTC,2444723.708333,29.4519,-93.4333,0107,-8.57,-5.15,10.0000,239.0000
1981-04-29 05:30:00 UTC,2444723.729167,29.4519,-93.4333,0107,-8.39,-5.45,10.0000,237.0000
1981-04-29 06:00:00 UTC,2444723.750000,29.4519,-93.4333,0107,-8.90,-6.47,11.0000,234.0000
1981-04-29 06:30:00 UTC,2444723.770833,29.4519,-93.4333,0107,-8.67,-6.77,11.0000,232.0000
1981-04-29 07:00:00 UTC,2444723.791667,29.4519,-93.4333,0107,-8.67,-6.77,11.0000,232.0000
1981-04-29 07:30:00 UTC,2444723.812500,29.4519,-93.4333,0107,-7.99,-6.02,10.0000,233.0000
1981-04-29 08:00:00 UTC,2444723.833333,29.4519,-93.4333,0107,-7.46,-5.03,9.0000,236.0000
1981-04-29 08:30:00 UTC,2444723.854167,29.4519,-93.4333,0107,-6.18,-3.29,7.0000,242.0000
1981-04-29 09:00:00 UTC,2444723.875000,29.4519,-93.4333,0107,-6.39,-2.85,7.0000,246.0000
1981-04-29 09:30:00 UTC,2444723.895833,29.4519,-93.4333,0107,-6.69,-2.05,7.0000,253.0000
1981-04-29 10:00:00 UTC,2444723.916667,29.4519,-93.4333,0107,-6.97,-0.61,7.0000,265.0000
1981-04-29 10:30:00 UTC,2444723.937500,29.4519,-93.4333,0107,-6.98,0.49,7.0000,274.0000
1981-04-29 11:00:00 UTC,2444723.958333,29.4519,-93.4333,0107,-6.85,1.46,7.0000,282.0000
1981-04-29 11:30:00 UTC,2444723.979167,29.4519,-93.4333,0107,-6.54,2.51,7.0000,291.0000
1981-04-29 12:00:00 UTC,2444724.000000,29.4519,-93.4333,0107,-6.34,2.96,7.0000,295.0000
1981-04-29 12:30:00 UTC,2444724.020833,29.4519,-93.4333,0107,-7.47,2.87,8.0000,291.0000
1981-04-29 13:00:00 UTC,2444724.041667,29.4519,-93.4333,0107,-8.51,2.93,9.0000,289.0000
1981-04-29 13:30:00 UTC,2444724.062500,29.4519,-93.4333,0107,-9.27,3.75,10.0000,292.0000
1981-04-29 14:00:00 UTC,2444724.083333,29.4519,-93.4333,0107,-8.91,4.54,10.0000,297.0000
1981-04-29 14:30:00 UTC,2444724.104167,29.4519,-93.4333,0107,-7.79,4.50,9.0000,300.0000
1981-04-29 15:00:00 UTC,2444724.125000,29.4519,-93.4333,0107,-7.36,3.13,8.0000,293.0000
1981-04-29 15:30:00 UTC,2444724.145833,29.4519,-93.4333,0107,-7.88,1.39,8.0000,280.0000
1981-04-29 16:00:00 UTC,2444724.166667,29.4519,-93.4333,0107,-8.99,0.31,9.0000,272.0000
1981-04-29 16:30:00 UTC,2444724.187500,29.4519,-93.4333,0107,-8.99,0.31,9.0000,272.0000
1981-04-29 17:00:00 UTC,2444724.208333,29.4519,-93.4333,0107,-7.00,0.12,7.0000,271.0000
1981-04-29 17:30:00 UTC,2444724.229167,29.4519,-93.4333,0107,-5.82,-1.45,6.0000,256.0000
1981-04-29 18:00:00 UTC,2444724.250000,29.4519,-93.4333,0107,-5.87,-3.81,7.0000,237.0000
1981-04-29 18:30:00 UTC,2444724.270833,29.4519,-93.4333,0107,-5.28,-4.59,7.0000,229.0000
1981-04-29 19:00:00 UTC,2444724.291667,29.4519,-93.4333,0107,-6.22,-5.03,8.0000,231.0000
1981-04-29 19:30:00 UTC,2444724.312500,29.4519,-93.4333,0107,-5.66,-4.11,7.0000,234.0000
1981-04-29 20:00:00 UTC,2444724.333333,29.4519,-93.4333,0107,-4.60,-3.86,6.0000,230.0000
1981-04-29 20:30:00 UTC,2444724.354167,29.4519,-93.4333,0107,-4.17,-4.32,6.0000,224.0000
1981-04-29 21:00:00 UTC,2444724.375000,29.4519,-93.4333,0107,-4.01,-4.46,6.0000,222.0000
1981-04-29 21:30:00 UTC,2444724.395833,29.4519,-93.4333,0107,-4.17,-4.32,6.0000,224.0000
1981-04-29 22:00:00 UTC,2444724.416667,29.4519,-93.4333,0107,-4.60,-3.86,6.0000,230.0000
1981-04-29 22:30:00 UTC,2444724.437500,29.4519,-93.4333,0107,-4.33,-2.50,5.0000,240.0000
1981-04-29 23:00:00 UTC,2444724.458333,29.4519,-93.4333,0107,-4.76,-1.55,5.0000,252.0000
1981-04-29 23:30:00 UTC,2444724.479167,29.4519,-93.4333,0107,-3.98,0.42,4.0000,276.0000
1981-04-30 00:00:00 UTC,2444724.500000,29.4519,-93.4333,0107,-2.46,1.72,3.0000,305.0000
1981-04-30 00:30:00 UTC,2444724.520833,29.4519,-93.4333,0107,-1.85,2.36,3.0000,322.0000
1981-04-30 01:00:00 UTC,2444724.541667,29.4519,-93.4333,0107,-1.63,2.52,3.0000,327.0000
1981-04-30 01:30:00 UTC,2444724.562500,29.4519,-93.4333,0107,-0.97,1.75,2.0000,331.0000
1981-04-30 02:00:00 UTC,2444724.583333,29.4519,-93.4333,0107,-1.18,1.62,2.0000,324.0000
1981-04-30 02:30:00 UTC,2444724.604167,29.4519,-93.4333,0107,-1.93,2.30,3.0000,320.0000
1981-04-30 03:00:00 UTC,2444724.625000,29.4519,-93.4333,0107,-2.72,4.19,5.0000,327.0000
1981-04-30 03:30:00 UTC,2444724.645833,29.4519,-93.4333,0107,-1.43,3.73,4.0000,339.0000
1981-04-30 04:00:00 UTC,2444724.666667,29.4519,-93.4333,0107,-0.28,1.98,2.0000,352.0000
1981-04-30 04:30:00 UTC,2444724.687500,29.4519,-93.4333,0107,0.05,1.00,1.0000,3.0000
1981-04-30 05:00:00 UTC,2444724.708333,29.4519,-93.4333,0107,-0.48,-0.87,1.0000,209.0000
1981-04-30 05:30:00 UTC,2444724.729167,29.4519,-93.4333,0107,-1.81,-2.40,3.0000,217.0000
1981-04-30 06:00:00 UTC,2444724.750000,29.4519,-93.4333,0107,-3.15,-3.89,5.0000,219.0000
1981-04-30 06:30:00 UTC,2444724.770833,29.4519,-93.4333,0107,-2.35,-3.24,4.0000,216.0000
1981-04-30 07:00:00 UTC,2444724.791667,29.4519,-93.4333,0107,-1.32,-2.70,3.0000,206.0000
1981-04-30 07:30:00 UTC,2444724.812500,29.4519,-93.4333,0107,0.00,-2.00,2.0000,180.0000
1981-04-30 08:00:00 UTC,2444724.833333,29.4519,-93.4333,0107,1.32,-2.70,3.0000,154.0000
1981-04-30 08:30:00 UTC,2444724.854167,29.4519,-93.4333,0107,2.41,-3.19,4.0000,143.0000
1981-04-30 09:00:00 UTC,2444724.875000,29.4519,-93.4333,0107,2.58,-4.29,5.0000,149.0000
1981-04-30 09:30:00 UTC,2444724.895833,29.4519,-93.4333,0107,2.46,-3.15,4.0000,142.0000
1981-04-30 10:00:00 UTC,2444724.916667,29.4519,-93.4333,0107,3.71,-1.50,4.0000,112.0000
1981-04-30 10:30:00 UTC,2444724.937500,29.4519,-93.4333,0107,5.00,0.17,5.0000,88.0000
1981-04-30 11:00:00 UTC,2444724.958333,29.4519,-93.4333,0107,5.56,2.25,6.0000,68.0000
1981-04-30 11:30:00 UTC,2444724.979167,29.4519,-93.4333,0107,7.28,5.29,9.0000,54.0000
1981-04-30 12:00:00 UTC,2444725.000000,29.4519,-93.4333,0107,7.78,7.78,11.0000,45.0000
1981-04-30 12:30:00 UTC,2444725.020833,29.4519,-93.4333,0107,7.22,9.58,12.0000,37.0000
1981-04-30 13:00:00 UTC,2444725.041667,29.4519,-93.4333,0107,7.27,10.78,13.0000,34.0000
1981-04-30 13:30:00 UTC,2444725.062500,29.4519,-93.4333,0107,7.64,10.52,13.0000,36.0000
1981-04-30 14:00:00 UTC,2444725.083333,29.4519,-93.4333,0107,7.39,9.46,12.0000,38.0000
1981-04-30 14:30:00 UTC,2444725.104167,29.4519,-93.4333,0107,7.39,9.46,12.0000,38.0000
1981-04-30 15:00:00 UTC,2444725.125000,29.4519,-93.4333,0107,6.77,8.67,11.0000,38.0000
1981-04-30 15:30:00 UTC,2444725.145833,29.4519,-93.4333,0107,6.02,7.99,10.0000,37.0000
1981-04-30 16:00:00 UTC,2444725.166667,29.4519,-93.4333,0107,5.03,7.46,9.0000,34.0000
1981-04-30 16:30:00 UTC,2444725.187500,29.4519,-93.4333,0107,5.16,7.37,9.0000,35.0000
1981-04-30 17:00:00 UTC,2444725.208333,29.4519,-93.4333,0107,5.66,6.99,9.0000,39.0000
1981-04-30 17:30:00 UTC,2444725.229167,29.4519,-93.4333,0107,5.20,4.68,7.0000,48.0000
1981-04-30 18:00:00 UTC,2444725.250000,29.4519,-93.4333,0107,6.44,2.74,7.0000,67.0000
1981-04-30 18:30:00 UTC,2444725.270833,29.4519,-93.4333,0107,6.96,0.73,7.0000,84.0000
1981-04-30 19:00:00 UTC,2444725.291667,29.4519,-93.4333,0107,7.00,-0.12,7.0000,91.0000
1981-04-30 19:30:00 UTC,2444725.312500,29.4519,-93.4333,0107,5.97,-0.63,6.0000,96.0000
1981-04-30 20:00:00 UTC,2444725.333333,29.4519,-93.4333,0107,6.76,-1.81,7.0000,105.0000
1981-04-30 20:30:00 UTC,2444725.354167,29.4519,-93.4333,0107,7.19,-3.51,8.0000,116.0000
1981-04-30 21:00:00 UTC,2444725.375000,29.4519,-93.4333,0107,6.63,-4.47,8.0000,124.0000
1981-04-30 21:30:00 UTC,2444725.395833,29.4519,-93.4333,0107,5.87,-3.81,7.0000,123.0000
1981-04-30 22:00:00 UTC,2444725.416667,29.4519,-93.4333,0107,6.44,-2.74,7.0000,113.0000
1981-04-30 22:30:00 UTC,2444725.437500,29.4519,-93.4333,0107,5.93,-0.94,6.0000,99.0000
1981-04-30 23:00:00 UTC,2444725.458333,29.4519,-93.4333,0107,5.93,0.94,6.0000,81.0000
1981-04-30 23:30:00 UTC,2444725.479167,29.4519,-93.4333,0107,6.18,3.29,7.0000,62.0000
1981-05-01 00:00:00 UTC,2444725.500000,29.4519,-93.4333,0107,6.30,4.93,8.0000,52.0000
1981-05-01 00:30:00 UTC,2444725.520833,29.4519,-93.4333,0107,6.99,5.66,9.0000,51.0000
1981-05-01 01:00:00 UTC,2444725.541667,29.4519,-93.4333,0107,7.66,6.43,10.0000,50.0000
1981-05-01 01:30:00 UTC,2444725.562500,29.4519,-93.4333,0107,9.06,7.87,12.0000,49.0000
1981-05-01 02:00:00 UTC,2444725.583333,29.4519,-93.4333,0107,9.06,7.87,12.0000,49.0000
1981-05-01 02:30:00 UTC,2444725.604167,29.4519,-93.4333,0107,8.92,8.03,12.0000,48.0000
1981-05-01 03:00:00 UTC,2444725.625000,29.4519,-93.4333,0107,10.10,8.18,13.0000,51.0000
1981-05-01 03:30:00 UTC,2444725.645833,29.4519,-93.4333,0107,10.29,6.18,12.0000,59.0000
1981-05-01 04:00:00 UTC,2444725.666667,29.4519,-93.4333,0107,10.05,4.47,11.0000,66.0000
1981-05-01 04:30:00 UTC,2444725.687500,29.4519,-93.4333,0107,9.51,3.09,10.0000,72.0000
1981-05-01 05:00:00 UTC,2444725.708333,29.4519,-93.4333,0107,7.85,1.53,8.0000,79.0000
1981-05-01 05:30:00 UTC,2444725.729167,29.4519,-93.4333,0107,5.99,0.31,6.0000,87.0000
1981-05-01 06:00:00 UTC,2444725.750000,29.4519,-93.4333,0107,4.96,-0.61,5.0000,97.0000
1981-05-01 06:30:00 UTC,2444725.770833,29.4519,-93.4333,0107,4.53,-2.11,5.0000,115.0000
1981-05-01 07:00:00 UTC,2444725.791667,29.4519,-93.4333,0107,4.53,-3.94,6.0000,131.0000
1981-05-01 07:30:00 UTC,2444725.812500,29.4519,-93.4333,0107,4.95,-4.95,7.0000,135.0000
1981-05-01 08:00:00 UTC,2444725.833333,29.4519,-93.4333,0107,4.21,-5.59,7.0000,143.0000
1981-05-01 08:30:00 UTC,2444725.854167,29.4519,-93.4333,0107,2.85,-6.39,7.0000,156.0000
1981-05-01 09:00:00 UTC,2444725.875000,29.4519,-93.4333,0107,1.45,-5.82,6.0000,166.0000
1981-05-01 09:30:00 UTC,2444725.895833,29.4519,-93.4333,0107,0.52,-4.97,5.0000,174.0000
1981-05-01 10:00:00 UTC,2444725.916667,29.4519,-93.4333,0107,-0.03,-2.00,2.0000,181.0000
1981-05-01 10:30:00 UTC,2444725.937500,29.4519,-93.4333,0107,0.93,0.37,1.0000,68.0000
1981-05-01 11:00:00 UTC,2444725.958333,29.4519,-93.4333,0107,2.41,3.19,4.0000,37.0000
1981-05-01 11:30:00 UTC,2444725.979167,29.4519,-93.4333,0107,3.09,5.14,6.0000,31.0000
1981-05-01 12:00:00 UTC,2444726.000000,29.4519,-93.4333,0107,4.12,6.86,8.0000,31.0000
1981-05-01 12:30:00 UTC,2444726.020833,29.4519,-93.4333,0107,4.90,7.55,9.0000,33.0000
1981-05-01 13:00:00 UTC,2444726.041667,29.4519,-93.4333,0107,5.88,8.09,10.0000,36.0000
1981-05-01 13:30:00 UTC,2444726.062500,29.4519,-93.4333,0107,7.22,8.30,11.0000,41.0000
1981-05-01 14:00:00 UTC,2444726.083333,29.4519,-93.4333,0107,8.03,8.92,12.0000,42.0000
1981-05-01 14:30:00 UTC,2444726.104167,29.4519,-93.4333,0107,8.70,9.66,13.0000,42.0000
1981-05-01 15:00:00 UTC,2444726.125000,29.4519,-93.4333,0107,8.34,8.63,12.0000,44.0000
1981-05-01 15:30:00 UTC,2444726.145833,29.4519,-93.4333,0107,7.78,7.78,11.0000,45.0000
1981-05-01 16:00:00 UTC,2444726.166667,29.4519,-93.4333,0107,8.04,7.50,11.0000,47.0000
1981-05-01 16:30:00 UTC,2444726.187500,29.4519,-93.4333,0107,7.66,6.43,10.0000,50.0000
1981-05-01 17:00:00 UTC,2444726.208333,29.4519,-93.4333,0107,6.24,3.18,7.0000,63.0000
1981-05-01 17:30:00 UTC,2444726.229167,29.4519,-93.4333,0107,5.94,0.84,6.0000,82.0000
1981-05-01 18:00:00 UTC,2444726.250000,29.4519,-93.4333,0107,4.96,-0.61,5.0000,97.0000
1981-05-01 18:30:00 UTC,2444726.270833,29.4519,-93.4333,0107,3.76,-1.37,4.0000,110.0000
1981-05-01 19:00:00 UTC,2444726.291667,29.4519,-93.4333,0107,5.85,-1.35,6.0000,103.0000
1981-05-01 19:30:00 UTC,2444726.312500,29.4519,-93.4333,0107,9.88,-1.56,10.0000,99.0000
1981-05-01 20:00:00 UTC,2444726.333333,29.4519,-93.4333,0107,13.98,-0.73,14.0000,93.0000
1981-05-01 20:30:00 UTC,2444726.354167,29.4519,-93.4333,0107,16.91,1.78,17.0000,84.0000
1981-05-01 21:00:00 UTC,2444726.375000,29.4519,-93.4333,0107,16.87,2.07,17.0000,83.0000
1981-05-01 21:30:00 UTC,2444726.395833,29.4519,-93.4333,0107,13.98,0.73,14.0000,87.0000
1981-05-01 22:00:00 UTC,2444726.416667,29.4519,-93.4333,0107,13.00,-0.23,13.0000,91.0000
1981-05-01 22:30:00 UTC,2444726.437500,29.4519,-93.4333,0107,11.82,-2.08,12.0000,100.0000
1981-05-01 23:00:00 UTC,2444726.458333,29.4519,-93.4333,0107,11.05,-4.69,12.0000,113.0000
1981-05-01 23:30:00 UTC,2444726.479167,29.4519,-93.4333,0107,11.14,-6.70,13.0000,121.0000
1981-05-02 00:00:00 UTC,2444726.500000,29.4519,-93.4333,0107,9.95,-6.71,12.0000,124.0000
1981-05-02 00:30:00 UTC,2444726.520833,29.4519,-93.4333,0107,10.05,-4.47,11.0000,114.0000
1981-05-02 01:00:00 UTC,2444726.541667,29.4519,-93.4333,0107,11.00,0.19,11.0000,89.0000
1981-05-02 01:30:00 UTC,2444726.562500,29.4519,-93.4333,0107,11.48,3.51,12.0000,73.0000
1981-05-02 02:00:00 UTC,2444726.583333,29.4519,-93.4333,0107,11.97,5.08,13.0000,67.0000
1981-05-02 02:30:00 UTC,2444726.604167,29.4519,-93.4333,0107,10.96,4.88,12.0000,66.0000
1981-05-02 03:00:00 UTC,2444726.625000,29.4519,-93.4333,0107,10.52,3.22,11.0000,73.0000
1981-05-02 03:30:00 UTC,2444726.645833,29.4519,-93.4333,0107,8.99,0.31,9.0000,88.0000
1981-05-02 04:00:00 UTC,2444726.666667,29.4519,-93.4333,0107,7.52,-2.74,8.0000,110.0000
1981-05-02 04:30:00 UTC,2444726.687500,29.4519,-93.4333,0107,6.30,-4.93,8.0000,128.0000
1981-05-02 05:00:00 UTC,2444726.708333,29.4519,-93.4333,0107,4.68,-5.20,7.0000,138.0000
1981-05-02 05:30:00 UTC,2444726.729167,29.4519,-93.4333,0107,2.35,-4.41,5.0000,152.0000
1981-05-02 06:00:00 UTC,2444726.750000,29.4519,-93.4333,0107,1.37,-3.76,4.0000,160.0000
1981-05-02 06:30:00 UTC,2444726.770833,29.4519,-93.4333,0107,1.97,-2.26,3.0000,139.0000
1981-05-02 07:00:00 UTC,2444726.791667,29.4519,-93.4333,0107,2.97,-2.68,4.0000,132.0000
1981-05-02 07:30:00 UTC,2444726.812500,29.4519,-93.4333,0107,2.27,-4.46,5.0000,153.0000
1981-05-02 08:00:00 UTC,2444726.833333,29.4519,-93.4333,0107,0.94,-5.93,6.0000,171.0000
1981-05-02 08:30:00 UTC,2444726.854167,29.4519,-93.4333,0107,0.61,-6.97,7.0000,175.0000
1981-05-02 09:00:00 UTC,2444726.875000,29.4519,-93.4333,0107,1.25,-5.87,6.0000,168.0000
1981-05-02 09:30:00 UTC,2444726.895833,29.4519,-93.4333,0107,1.95,-4.60,5.0000,157.0000
1981-05-02 10:00:00 UTC,2444726.916667,29.4519,-93.4333,0107,1.95,-4.60,5.0000,157.0000
1981-05-02 10:30:00 UTC,2444726.937500,29.4519,-93.4333,0107,1.50,-3.71,4.0000,158.0000
1981-05-02 11:00:00 UTC,2444726.958333,29.4519,-93.4333,0107,1.17,-2.76,3.0000,157.0000
1981-05-02 11:30:00 UTC,2444726.979167,29.4519,-93.4333,0107,-0.37,-2.98,3.0000,187.0000
1981-05-02 12:00:00 UTC,2444727.000000,29.4519,-93.4333,0107,-2.78,-2.88,4.0000,224.0000
1981-05-02 12:30:00 UTC,2444727.020833,29.4519,-93.4333,0107,-4.70,-1.71,5.0000,250.0000
1981-05-02 13:00:00 UTC,2444727.041667,29.4519,-93.4333,0107,-5.99,0.42,6.0000,274.0000
1981-05-02 13:30:00 UTC,2444727.062500,29.4519,-93.4333,0107,-8.51,2.93,9.0000,289.0000
1981-05-02 14:00:00 UTC,2444727.083333,29.4519,-93.4333,0107,-11.35,3.91,12.0000,289.0000
1981-05-02 14:30:00 UTC,2444727.104167,29.4519,-93.4333,0107,-13.46,3.86,14.0000,286.0000
1981-05-02 15:00:00 UTC,2444727.125000,29.4519,-93.4333,0107,-14.42,4.13,15.0000,286.0000
1981-05-02 15:30:00 UTC,2444727.145833,29.4519,-93.4333,0107,-11.78,2.29,12.0000,281.0000
1981-05-02 16:00:00 UTC,2444727.166667,29.4519,-93.4333,0107,-10.99,-0.38,11.0000,268.0000
1981-05-02 16:30:00 UTC,2444727.187500,29.4519,-93.4333,0107,-11.74,-2.49,12.0000,258.0000
1981-05-02 17:00:00 UTC,2444727.208333,29.4519,-93.4333,0107,-12.14,-4.66,13.0000,249.0000
1981-05-02 17:30:00 UTC,2444727.229167,29.4519,-93.4333,0107,-13.37,-6.81,15.0000,243.0000
1981-05-02 18:00:00 UTC,2444727.250000,29.4519,-93.4333,0107,-14.38,-7.01,16.0000,244.0000
1981-05-02 18:30:00 UTC,2444727.270833,29.4519,-93.4333,0107,-16.57,-7.03,18.0000,247.0000
1981-05-02 19:00:00 UTC,2444727.291667,29.4519,-93.4333,0107,-17.85,-6.50,19.0000,250.0000
1981-05-02 19:30:00 UTC,2444727.312500,29.4519,-93.4333,0107,-15.76,-6.37,17.0000,248.0000
1981-05-02 20:00:00 UTC,2444727.333333,29.4519,-93.4333,0107,-13.86,-8.00,16.0000,240.0000
1981-05-02 20:30:00 UTC,2444727.354167,29.4519,-93.4333,0107,-12.94,-9.40,16.0000,234.0000
1981-05-02 21:00:00 UTC,2444727.375000,29.4519,-93.4333,0107,-13.11,-9.18,16.0000,235.0000
1981-05-02 21:30:00 UTC,2444727.395833,29.4519,-93.4333,0107,-12.43,-10.07,16.0000,231.0000
1981-05-02 22:00:00 UTC,2444727.416667,29.4519,-93.4333,0107,-10.23,-13.58,17.0000,217.0000
1981-05-02 22:30:00 UTC,2444727.437500,29.4519,-93.4333,0107,-9.54,-15.26,18.0000,212.0000
1981-05-02 23:00:00 UTC,2444727.458333,29.4519,-93.4333,0107,-10.58,-14.56,18.0000,216.0000
1981-05-02 23:30:00 UTC,2444727.479167,29.4519,-93.4333,0107,-10.70,-13.21,17.0000,219.0000
1981-05-03 00:00:00 UTC,2444727.500000,29.4519,-93.4333,0107,-10.71,-11.89,16.0000,222.0000
1981-05-03 00:30:00 UTC,2444727.520833,29.4519,-93.4333,0107,-12.23,-11.81,17.0000,226.0000
1981-05-03 01:00:00 UTC,2444727.541667,29.4519,-93.4333,0107,-13.58,-11.81,18.0000,229.0000
1981-05-03 01:30:00 UTC,2444727.562500,29.4519,-93.4333,0107,-14.92,-10.07,18.0000,236.0000
1981-05-03 02:00:00 UTC,2444727.583333,29.4519,-93.4333,0107,-15.53,-6.91,17.0000,246.0000
1981-05-03 02:30:00 UTC,2444727.604167,29.4519,-93.4333,0107,-16.42,-4.40,17.0000,255.0000
1981-05-03 03:00:00 UTC,2444727.625000,29.4519,-93.4333,0107,-13.90,-1.71,14.0000,263.0000
1981-05-03 03:30:00 UTC,2444727.645833,29.4519,-93.4333,0107,-11.98,0.63,12.0000,273.0000
1981-05-03 04:00:00 UTC,2444727.666667,29.4519,-93.4333,0107,-11.88,1.67,12.0000,278.0000
1981-05-03 04:30:00 UTC,2444727.687500,29.4519,-93.4333,0107,-12.84,2.03,13.0000,279.0000
1981-05-03 05:00:00 UTC,2444727.708333,29.4519,-93.4333,0107,-13.90,1.71,14.0000,277.0000
1981-05-03 05:30:00 UTC,2444727.729167,29.4519,-93.4333,0107,-15.76,2.78,16.0000,280.0000
1981-05-03 06:00:00 UTC,2444727.750000,29.4519,-93.4333,0107,-13.24,4.56,14.0000,289.0000
1981-05-03 06:30:00 UTC,2444727.770833,29.4519,-93.4333,0107,-9.89,4.82,11.0000,296.0000
1981-05-03 07:00:00 UTC,2444727.791667,29.4519,-93.4333,0107,-8.02,4.09,9.0000,297.0000
1981-05-03 07:30:00 UTC,2444727.812500,29.4519,-93.4333,0107,-7.87,4.36,9.0000,299.0000
1981-05-03 08:00:00 UTC,2444727.833333,29.4519,-93.4333,0107,-6.06,3.50,7.0000,300.0000
1981-05-03 08:30:00 UTC,2444727.854167,29.4519,-93.4333,0107,-6.44,2.74,7.0000,293.0000
1981-05-03 09:00:00 UTC,2444727.875000,29.4519,-93.4333,0107,-7.61,2.47,8.0000,288.0000
1981-05-03 09:30:00 UTC,2444727.895833,29.4519,-93.4333,0107,-8.51,2.93,9.0000,289.0000
1981-05-03 10:00:00 UTC,2444727.916667,29.4519,-93.4333,0107,-6.79,1.69,7.0000,284.0000
1981-05-03 10:30:00 UTC,2444727.937500,29.4519,-93.4333,0107,-3.46,-2.00,4.0000,240.0000
1981-05-03 11:00:00 UTC,2444727.958333,29.4519,-93.4333,0107,-1.46,-6.85,7.0000,192.0000
1981-05-03 11:30:00 UTC,2444727.979167,29.4519,-93.4333,0107,-2.92,-9.56,10.0000,197.0000
1981-05-03 12:00:00 UTC,2444728.000000,29.4519,-93.4333,0107,-7.50,-8.04,11.0000,223.0000
1981-05-03 12:30:00 UTC,2444728.020833,29.4519,-93.4333,0107,-11.48,-6.10,13.0000,242.0000
1981-05-03 13:00:00 UTC,2444728.041667,29.4519,-93.4333,0107,-12.36,-4.02,13.0000,252.0000
1981-05-03 13:30:00 UTC,2444728.062500,29.4519,-93.4333,0107,-11.74,-2.49,12.0000,258.0000
1981-05-03 14:00:00 UTC,2444728.083333,29.4519,-93.4333,0107,-11.91,-1.46,12.0000,263.0000
1981-05-03 14:30:00 UTC,2444728.104167,29.4519,-93.4333,0107,-11.98,0.63,12.0000,273.0000
1981-05-03 15:00:00 UTC,2444728.125000,29.4519,-93.4333,0107,-11.54,3.31,12.0000,286.0000
1981-05-03 15:30:00 UTC,2444728.145833,29.4519,-93.4333,0107,-11.05,4.69,12.0000,293.0000
1981-05-03 16:00:00 UTC,2444728.166667,29.4519,-93.4333,0107,-10.69,5.45,12.0000,297.0000
1981-05-03 16:30:00 UTC,2444728.187500,29.4519,-93.4333,0107,-11.48,6.10,13.0000,298.0000
1981-05-03 17:00:00 UTC,2444728.208333,29.4519,-93.4333,0107,-12.24,6.79,14.0000,299.0000
1981-05-03 17:30:00 UTC,2444728.229167,29.4519,-93.4333,0107,-12.86,7.73,15.0000,301.0000
1981-05-03 18:00:00 UTC,2444728.250000,29.4519,-93.4333,0107,-14.13,7.51,16.0000,298.0000
1981-05-03 18:30:00 UTC,2444728.270833,29.4519,-93.4333,0107,-15.30,4.68,16.0000,287.0000
1981-05-03 19:00:00 UTC,2444728.291667,29.4519,-93.4333,0107,-15.96,1.12,16.0000,274.0000
1981-05-03 19:30:00 UTC,2444728.312500,29.4519,-93.4333,0107,-17.90,-1.88,18.0000,264.0000
1981-05-03 20:00:00 UTC,2444728.333333,29.4519,-93.4333,0107,-18.58,-3.95,19.0000,258.0000
1981-05-03 20:30:00 UTC,2444728.354167,29.4519,-93.4333,0107,-18.26,-5.24,19.0000,254.0000
1981-05-03 21:00:00 UTC,2444728.375000,29.4519,-93.4333,0107,-19.02,-6.18,20.0000,252.0000
1981-05-03 21:30:00 UTC,2444728.395833,29.4519,-93.4333,0107,-17.85,-6.50,19.0000,250.0000
1981-05-03 22:00:00 UTC,2444728.416667,29.4519,-93.4333,0107,-17.22,-8.03,19.0000,245.0000
1981-05-03 22:30:00 UTC,2444728.437500,29.4519,-93.4333,0107,-17.82,-9.08,20.0000,243.0000
1981-05-03 23:00:00 UTC,2444728.458333,29.4519,-93.4333,0107,-19.24,-10.67,22.0000,241.0000
1981-05-03 23:30:00 UTC,2444728.479167,29.4519,-93.4333,0107,-19.51,-12.19,23.0000,238.0000
1981-05-04 00:00:00 UTC,2444728.500000,29.4519,-93.4333,0107,-18.66,-11.66,22.0000,238.0000
1981-05-04 00:30:00 UTC,2444728.520833,29.4519,-93.4333,0107,-19.03,-8.88,21.0000,245.0000
1981-05-04 01:00:00 UTC,2444728.541667,29.4519,-93.4333,0107,-18.35,-4.92,19.0000,255.0000
1981-05-04 01:30:00 UTC,2444728.562500,29.4519,-93.4333,0107,-16.83,-2.37,17.0000,262.0000
1981-05-04 02:00:00 UTC,2444728.583333,29.4519,-93.4333,0107,-17.78,-2.82,18.0000,261.0000
1981-05-04 02:30:00 UTC,2444728.604167,29.4519,-93.4333,0107,-21.79,-3.06,22.0000,262.0000
1981-05-04 03:00:00 UTC,2444728.625000,29.4519,-93.4333,0107,-24.00,-0.00,24.0000,270.0000
1981-05-04 03:30:00 UTC,2444728.645833,29.4519,-93.4333,0107,-23.77,3.34,24.0000,278.0000
1981-05-04 04:00:00 UTC,2444728.666667,29.4519,-93.4333,0107,-22.41,5.17,23.0000,283.0000
1981-05-04 04:30:00 UTC,2444728.687500,29.4519,-93.4333,0107,-17.96,6.19,19.0000,289.0000